TDRS 3 1 19548U 88091B 26236.15878095 -.00000295 00000+0 00000+0 0 9990 2 19548 12.5512 340.5426 0036870 353.3685 6.6943 1.00266791126061 HST 1 20580U 90037B 26236.58263560 .00005856 00000+0 17987-3 0 9996 2 20580 28.4737 332.8671 0001937 170.8701 189.1930 15.31443318799067 TDRS 5 1 21639U 91054B 26236.51419038 .00000088 00000+0 00000+0 0 9994 2 21639 14.0630 353.2623 0007953 246.8496 110.1219 1.00272521128392 TDRS 6 1 22314U 93003B 26236.20673889 -.00000293 00000+0 00000+0 0 9992 2 22314 14.1846 356.5437 0010114 194.9799 169.3375 1.00265116123097 TDRS 7 1 23613U 95035B 26236.65794814 -.00000236 00000+0 00000+0 0 9990 2 23613 13.3087 347.7085 0012508 98.3305 212.7355 1.00279528113933 ISS (ZARYA) 1 25544U 98067A 26236.43525466 .00008197 00000+0 15348-3 0 9992 2 25544 51.6332 322.3014 0007699 78.6726 281.5127 15.49604681582335 TERRA 1 25994U 99068A 26236.65451521 .00000275 00000+0 64925-4 0 9992 2 25994 97.9404 283.4678 0002902 42.7187 117.0886 14.61148284419604 TDRS 8 1 26388U 00034A 26236.42153852 -.00000196 00000+0 00000+0 0 9998 2 26388 12.7896 30.7281 0002414 73.4242 105.0897 1.00274986 95861 TIMED 1 26998U 01055B 26236.04762316 .00000815 00000+0 77298-4 0 9993 2 26998 74.0663 98.3712 0002337 257.5298 102.5625 14.95418251340968 AQUA 1 27424U 02022A 26236.62312734 .00000602 00000+0 12952-3 0 9991 2 27424 98.4350 207.2976 0001817 84.2862 336.0820 14.62176493293278 SORCE 1 27651U 03004A 26236.47213616 .00002189 00000+0 16597-3 0 9997 2 27651 39.9893 231.9877 0017554 186.5069 173.5500 15.04014700282182 AURA 1 28376U 04026A 26236.59226925 .00000598 00000+0 13050-3 0 9990 2 28376 98.3474 193.6352 0001706 80.2996 279.8397 14.61415553176206 SWIFT 1 28485U 04047A 26236.59884470 .00075643 00000+0 45945-3 0 9990 2 28485 20.5528 14.4043 0001460 136.4756 223.5807 15.75729359197647 THEMIS A 1 30580U 07004A 26227.58693813 -.00000552 00000+0 00000+0 0 9990 2 30580 9.0460 104.5165 8346809 210.9785 47.8840 0.87844134 41802 THEMIS D 1 30797U 07004D 26233.88928241 -.00000673 00000+0 00000+0 0 9990 2 30797 8.0978 76.8032 8313213 241.6032 117.8063 0.87844579 41659 THEMIS E 1 30798U 07004E 26222.88605324 -.00000671 00000+0 00000+0 0 9991 2 30798 6.8597 94.2991 8429572 226.0063 126.8603 0.87839709 66407 FGRST (GLAST) 1 33053U 08029A 26236.64642453 .00002991 00000+0 10558-3 0 9998 2 33053 25.5822 89.0191 0008510 56.5233 303.6118 15.24248084 6147 TDRS 11 1 39070U 13004A 26236.58412566 .00000079 00000+0 00000+0 0 9997 2 39070 3.6235 32.2739 0003606 36.3050 300.2826 1.00277425 47378 TDRS 12 1 39504U 14004A 26236.52595631 -.00000271 00000+0 00000+0 0 9994 2 39504 4.0472 20.1289 0005314 209.8891 251.1149 1.00277323 44963 GPM-CORE 1 39574U 14009C 26236.56630835 .00005310 00000+0 11859-3 0 9992 2 39574 64.9699 78.9848 0011827 252.8247 107.1599 15.44637320708378 MMS 1 1 40482U 15011A 26236.66668981 -.00002201 00000+0 00000+0 0 9999 2 40482 72.8079 347.9801 8274573 168.8550 84.2588 0.28344469 1381 MMS 2 1 40483U 15011B 26236.66668981 -.00002203 00000+0 00000+0 0 9992 2 40483 72.8123 347.9790 8277405 168.8570 84.2404 0.28344433 1386 MMS 3 1 40484U 15011C 26236.66668981 -.00002202 00000+0 00000+0 0 9992 2 40484 72.8117 347.9911 8275775 168.8652 84.2141 0.28344447 1387 MMS 4 1 40485U 15011D 26236.66668981 -.00002202 00000+0 00000+0 0 9993 2 40485 72.8062 347.9749 8275795 168.8750 84.2119 0.28344422 1385 TDRS 13 1 42915U 17047A 26236.40239940 -.00000100 00000+0 00000+0 0 9990 2 42915 3.4740 4.3481 0014543 118.2635 343.5765 1.00272108 33037 NOAA 20 (JPSS-1) 1 43013U 17073A 26236.58431125 .00000043 00000+0 41570-4 0 9994 2 43013 98.7788 175.4450 0001998 75.4648 284.6749 14.19522558454170